Location: Laguna de la Cañada del Gallo
(40.3974°N, 5.2096°W)
Time: 11:34:51
(UTC+00:00)

COSMOS 2455 - Pass Details

Date: 18 April 2024
Orbit: 898 x 911 km, 67.1° (Epoch: 21 May)

Event Time Altitude Azimuth Distance (km) Brightness Sun altitude
Rises 22:02:56 0° 328° (NNW) 3,547 7.1 -29.4°
Reaches altitude 10° 22:05:27 10° 327° (NNW) 2,603 6.2 -29.7°
Enters shadow 22:11:09 68° 267° (W) 975 3.0 -30.4°
